Time,TemperatureF,DewpointF,PressureIn,WindDirection,WindDirectionDegrees,WindSpeedMPH,WindSpeedGustMPH,Humidity,HourlyPrecipIn,Conditions,Clouds,dailyrainin,SoftwareType,DateUTC
2013-03-13 04:23:00,25.0,-99.9,29.96,NW,305,4.0,-999.0,-999,-99.99,,,-99.99,,2013-03-13 09:23:00,
2013-03-13 04:32:00,25.0,-99.9,29.96,NNW,333,4.0,-999.0,-999,-99.99,,,-99.99,,2013-03-13 09:32:00,
2013-03-13 04:42:00,25.0,-99.9,29.96,NNW,333,4.0,-999.0,-999,-99.99,,,-99.99,,2013-03-13 09:42:00,
2013-03-13 04:52:00,25.0,-99.9,29.97,West,281,6.0,-999.0,-999,-99.99,,,-99.99,,2013-03-13 09:52:00,
2013-03-13 05:02:00,25.0,-99.9,29.97,NW,307,4.0,-999.0,-999,-99.99,,,-99.99,,2013-03-13 10:02:00,
2013-03-13 05:12:00,25.0,-99.9,29.97,NW,307,4.0,-999.0,-999,-99.99,,,-99.99,,2013-03-13 10:12:00,
2013-03-13 05:22:00,25.0,-99.9,29.98,NNW,331,6.0,-999.0,-999,-99.99,,,-99.99,,2013-03-13 10:22:00,
2013-03-13 05:32:00,25.0,-99.9,29.98,WNW,299,7.0,-999.0,-999,-99.99,,,-99.99,,2013-03-13 10:32:00,
2013-03-13 05:42:00,25.0,-99.9,29.98,WNW,299,7.0,-999.0,-999,-99.99,,,-99.99,,2013-03-13 10:42:00,
2013-03-13 05:52:00,24.0,-99.9,29.99,WNW,302,0.0,-999.0,-999,-99.99,,,-99.99,,2013-03-13 10:52:00,
2013-03-13 06:02:00,24.0,-99.9,30.00,NNW,337,2.0,-999.0,-999,-99.99,,,-99.99,,2013-03-13 11:02:00,
2013-03-13 06:13:00,24.0,-99.9,30.00,NNW,337,2.0,-999.0,-999,-99.99,,,-99.99,,2013-03-13 11:13:00,
2013-03-13 06:23:00,24.0,-99.9,30.01,NW,314,5.0,-999.0,-999,-99.99,,,-99.99,,2013-03-13 11:23:00,
2013-03-13 06:32:00,24.0,-99.9,30.02,WNW,301,0.0,-999.0,-999,-99.99,,,-99.99,,2013-03-13 11:32:00,
2013-03-13 06:42:00,24.0,-99.9,30.02,WNW,301,0.0,-999.0,-999,-99.99,,,-99.99,,2013-03-13 11:42:00,
2013-03-13 06:53:00,23.0,-99.9,30.02,NW,308,2.0,-999.0,-999,-99.99,,,-99.99,,2013-03-13 11:53:00,
2013-03-13 07:02:00,23.0,-99.9,30.03,NNW,337,1.0,-999.0,-999,-99.99,,,-99.99,,2013-03-13 12:02:00,
2013-03-13 07:12:00,23.0,-99.9,30.03,NNW,337,1.0,-999.0,-999,-99.99,,,-99.99,,2013-03-13 12:12:00,
2013-03-13 07:22:00,23.0,-99.9,30.04,NNW,330,4.0,-999.0,-999,-99.99,,,-99.99,,2013-03-13 12:22:00,
2013-03-13 07:33:00,23.0,-99.9,30.04,NW,307,1.0,-999.0,-999,-99.99,,,-99.99,,2013-03-13 12:33:00,
2013-03-13 07:42:00,23.0,-99.9,30.04,NW,307,1.0,-999.0,-999,-99.99,,,-99.99,,2013-03-13 12:42:00,
2013-03-13 07:53:00,23.0,-99.9,30.05,NW,309,1.0,-999.0,-999,-99.99,,,-99.99,,2013-03-13 12:53:00,
2013-03-13 08:02:00,23.0,-99.9,30.06,NW,323,2.0,-999.0,-999,-99.99,,,-99.99,,2013-03-13 13:02:00,
2013-03-13 08:12:00,23.0,-99.9,30.06,NW,323,2.0,-999.0,-999,-99.99,,,-99.99,,2013-03-13 13:12:00,
2013-03-13 08:22:00,23.0,-99.9,30.07,WNW,303,8.0,-999.0,-999,-99.99,,,-99.99,,2013-03-13 13:22:00,
2013-03-13 08:33:00,23.0,-99.9,30.07,NW,309,5.0,-999.0,-999,-99.99,,,-99.99,,2013-03-13 13:33:00,
2013-03-13 08:43:00,23.0,-99.9,30.07,NW,309,5.0,-999.0,-999,-99.99,,,-99.99,,2013-03-13 13:43:00,
2013-03-13 08:53:00,23.0,-99.9,30.08,NW,306,3.0,-999.0,-999,-99.99,,,-99.99,,2013-03-13 13:53:00,
2013-03-13 09:03:00,23.0,-99.9,30.08,NW,326,2.0,-999.0,-999,-99.99,,,-99.99,,2013-03-13 14:03:00,
2013-03-13 09:12:00,23.0,-99.9,30.08,NW,326,2.0,-999.0,-999,-99.99,,,-99.99,,2013-03-13 14:12:00,
2013-03-13 09:22:00,23.0,-99.9,30.09,WNW,292,3.0,-999.0,-999,-99.99,,,-99.99,,2013-03-13 14:22:00,
2013-03-13 09:34:00,23.0,-99.9,30.09,West,280,0.0,-999.0,-999,-99.99,,,-99.99,,2013-03-13 14:34:00,
2013-03-13 09:43:00,23.0,-99.9,30.09,West,280,0.0,-999.0,-999,-99.99,,,-99.99,,2013-03-13 14:43:00,
2013-03-13 09:53:00,23.0,-99.9,30.11,NW,311,3.0,-999.0,-999,-99.99,,,-99.99,,2013-03-13 14:53:00,
2013-03-13 10:03:00,23.0,-99.9,30.11,West,281,8.0,-999.0,-999,-99.99,,,-99.99,,2013-03-13 15:03:00,
2013-03-13 10:12:00,23.0,-99.9,30.11,West,281,8.0,-999.0,-999,-99.99,,,-99.99,,2013-03-13 15:12:00,
2013-03-13 10:22:00,23.0,-99.9,30.12,NW,309,4.0,-999.0,-999,-99.99,,,-99.99,,2013-03-13 15:22:00,
2013-03-13 10:33:00,23.0,-99.9,30.12,WNW,291,8.0,-999.0,-999,-99.99,,,-99.99,,2013-03-13 15:33:00,
2013-03-13 10:43:00,23.0,-99.9,30.12,WNW,291,8.0,-999.0,-999,-99.99,,,-99.99,,2013-03-13 15:43:00,
2013-03-13 10:53:00,24.0,-99.9,30.13,NNW,344,1.0,-999.0,-999,-99.99,,,-99.99,,2013-03-13 15:53:00,
2013-03-13 11:03:00,24.0,-99.9,30.14,WNW,293,6.0,-999.0,-999,-99.99,,,-99.99,,2013-03-13 16:03:00,
2013-03-13 11:13:00,24.0,-99.9,30.14,WNW,293,6.0,-999.0,-999,-99.99,,,-99.99,,2013-03-13 16:13:00,
2013-03-13 11:22:00,24.0,-99.9,30.15,NW,314,4.0,-999.0,-999,-99.99,,,-99.99,,2013-03-13 16:22:00,
2013-03-13 11:33:00,24.0,-99.9,30.15,WNW,287,4.0,-999.0,-999,-99.99,,,-99.99,,2013-03-13 16:33:00,
2013-03-13 11:42:00,24.0,-99.9,30.15,WNW,287,4.0,-999.0,-999,-99.99,,,-99.99,,2013-03-13 16:42:00,
2013-03-13 11:52:00,24.0,-99.9,30.16,NW,304,2.0,-999.0,-999,-99.99,,,-99.99,,2013-03-13 16:52:00,
2013-03-13 12:03:00,24.0,-99.9,30.16,WNW,293,3.0,-999.0,-999,-99.99,,,-99.99,,2013-03-13 17:03:00,
2013-03-13 12:12:00,24.0,-99.9,30.16,WNW,293,3.0,-999.0,-999,-99.99,,,-99.99,,2013-03-13 17:12:00,
2013-03-13 12:23:00,24.0,-99.9,30.16,WNW,286,1.0,-999.0,-999,-99.99,,,-99.99,,2013-03-13 17:23:00,
2013-03-13 12:33:00,24.0,-99.9,30.17,NW,316,2.0,-999.0,-999,-99.99,,,-99.99,,2013-03-13 17:33:00,
2013-03-13 12:43:00,24.0,-99.9,30.17,NW,316,2.0,-999.0,-999,-99.99,,,-99.99,,2013-03-13 17:43:00,
2013-03-13 12:53:00,25.0,-99.9,30.18,NNW,329,4.0,-999.0,-999,-99.99,,,-99.99,,2013-03-13 17:53:00,
2013-03-13 13:03:00,26.0,-99.9,30.18,NNW,345,5.0,-999.0,-999,-99.99,,,-99.99,,2013-03-13 18:03:00,
2013-03-13 13:13:00,26.0,-99.9,30.18,NNW,345,5.0,-999.0,-999,-99.99,,,-99.99,,2013-03-13 18:13:00,
2013-03-13 13:22:00,26.0,-99.9,30.18,NNW,327,4.0,-999.0,-999,-99.99,,,-99.99,,2013-03-13 18:22:00,
2013-03-13 13:33:00,27.0,-99.9,30.18,WNW,283,2.0,-999.0,-999,-99.99,,,-99.99,,2013-03-13 18:33:00,
2013-03-13 13:43:00,27.0,-99.9,30.18,WNW,283,2.0,-999.0,-999,-99.99,,,-99.99,,2013-03-13 18:43:00,
2013-03-13 13:52:00,27.0,-99.9,30.19,WNW,288,5.0,-999.0,-999,-99.99,,,-99.99,,2013-03-13 18:52:00,
2013-03-13 14:03:00,30.0,-99.9,30.19,WNW,287,1.0,-999.0,-999,-99.99,,,-99.99,,2013-03-13 19:03:00,
2013-03-13 14:12:00,30.0,-99.9,30.19,WNW,287,1.0,-999.0,-999,-99.99,,,-99.99,,2013-03-13 19:12:00,
2013-03-13 14:23:00,30.0,-99.9,30.19,NNW,335,4.0,-999.0,-999,-99.99,,,-99.99,,2013-03-13 19:23:00,
2013-03-13 14:32:00,28.0,-99.9,30.19,NW,316,0.0,-999.0,-999,-99.99,,,-99.99,,2013-03-13 19:32:00,
2013-03-13 14:43:00,28.0,-99.9,30.19,NW,316,0.0,-999.0,-999,-99.99,,,-99.99,,2013-03-13 19:43:00,
2013-03-13 14:53:00,30.0,-99.9,30.19,NW,309,2.0,-999.0,-999,-99.99,,,-99.99,,2013-03-13 19:53:00,
2013-03-13 15:02:00,29.0,-99.9,30.19,WNW,301,6.0,-999.0,-999,-99.99,,,-99.99,,2013-03-13 20:02:00,
2013-03-13 15:13:00,29.0,-99.9,30.19,WNW,301,6.0,-999.0,-999,-99.99,,,-99.99,,2013-03-13 20:13:00,
2013-03-13 15:23:00,30.0,-99.9,30.20,WNW,283,1.0,-999.0,-999,-99.99,,,-99.99,,2013-03-13 20:23:00,
2013-03-13 15:33:00,29.0,-99.9,30.20,NNW,343,3.0,-999.0,-999,-99.99,,,-99.99,,2013-03-13 20:33:00,
2013-03-13 15:42:00,29.0,-99.9,30.20,NNW,343,3.0,-999.0,-999,-99.99,,,-99.99,,2013-03-13 20:42:00,
2013-03-13 15:52:00,31.0,-99.9,30.21,North,351,5.0,-999.0,-999,-99.99,,,-99.99,,2013-03-13 20:52:00,
2013-03-13 16:02:00,31.0,-99.9,30.21,NW,313,1.0,-999.0,-999,-99.99,,,-99.99,,2013-03-13 21:02:00,
2013-03-13 16:12:00,31.0,-99.9,30.21,NW,313,1.0,-999.0,-999,-99.99,,,-99.99,,2013-03-13 21:12:00,
2013-03-13 16:22:00,30.0,-99.9,30.22,NNW,335,3.0,-999.0,-999,-99.99,,,-99.99,,2013-03-13 21:22:00,
2013-03-13 16:34:00,30.0,-99.9,30.22,NNW,330,2.0,-999.0,-999,-99.99,,,-99.99,,2013-03-13 21:34:00,
2013-03-13 16:42:00,30.0,-99.9,30.22,NNW,330,2.0,-999.0,-999,-99.99,,,-99.99,,2013-03-13 21:42:00,
2013-03-13 16:52:00,30.0,-99.9,30.22,NW,304,3.0,-999.0,-999,-99.99,,,-99.99,,2013-03-13 21:52:00,
2013-03-13 17:02:00,30.0,-99.9,30.22,NW,306,7.0,-999.0,-999,-99.99,,,-99.99,,2013-03-13 22:02:00,
2013-03-13 17:12:00,30.0,-99.9,30.22,NW,306,7.0,-999.0,-999,-99.99,,,-99.99,,2013-03-13 22:12:00,
2013-03-13 17:22:00,30.0,-99.9,30.23,NNW,339,2.0,-999.0,-999,-99.99,,,-99.99,,2013-03-13 22:22:00,
2013-03-13 17:32:00,31.0,-99.9,30.23,NW,310,0.0,-999.0,-999,-99.99,,,-99.99,,2013-03-13 22:32:00,
2013-03-13 17:42:00,31.0,-99.9,30.23,NW,310,0.0,-999.0,-999,-99.99,,,-99.99,,2013-03-13 22:42:00,
2013-03-13 17:52:00,31.0,-99.9,30.23,NNW,342,4.0,-999.0,-999,-99.99,,,-99.99,,2013-03-13 22:52:00,
2013-03-13 18:02:00,32.0,-99.9,30.23,NNW,338,4.0,-999.0,-999,-99.99,,,-99.99,,2013-03-13 23:02:00,
2013-03-13 18:13:00,32.0,-99.9,30.23,NNW,338,4.0,-999.0,-999,-99.99,,,-99.99,,2013-03-13 23:13:00,
2013-03-13 18:22:00,30.0,-99.9,30.23,NNW,337,0.0,-999.0,-999,-99.99,,,-99.99,,2013-03-13 23:22:00,
2013-03-13 18:32:00,29.0,-99.9,30.23,NNW,348,0.0,-999.0,-999,-99.99,,,-99.99,,2013-03-13 23:32:00,
2013-03-13 18:43:00,29.0,-99.9,30.23,NNW,348,0.0,-999.0,-999,-99.99,,,-99.99,,2013-03-13 23:43:00,
2013-03-13 18:52:00,28.0,-99.9,30.24,NNW,336,0.0,-999.0,-999,-99.99,,,-99.99,,2013-03-13 23:52:00,
2013-03-13 19:02:00,28.0,-99.9,30.23,NW,324,0.0,-999.0,-999,-99.99,,,-99.99,,2013-03-14 00:02:00,
2013-03-13 19:13:00,27.0,-99.9,30.23,NNW,339,0.0,-999.0,-999,-99.99,,,-99.99,,2013-03-14 00:13:00,
2013-03-13 19:22:00,27.0,-99.9,30.23,NNW,339,0.0,-999.0,-999,-99.99,,,-99.99,,2013-03-14 00:22:00,
2013-03-13 19:33:00,27.0,-99.9,30.24,WNW,300,0.0,-999.0,-999,-99.99,,,-99.99,,2013-03-14 00:33:00,
2013-03-13 19:43:00,27.0,-99.9,30.24,WNW,300,0.0,-999.0,-999,-99.99,,,-99.99,,2013-03-14 00:43:00,
2013-03-13 19:53:00,27.0,-99.9,30.24,NW,318,3.0,-999.0,-999,-99.99,,,-99.99,,2013-03-14 00:53:00,
2013-03-13 20:03:00,27.0,-99.9,30.24,NW,312,0.0,-999.0,-999,-99.99,,,-99.99,,2013-03-14 01:03:00,
2013-03-13 20:12:00,27.0,-99.9,30.24,NW,312,0.0,-999.0,-999,-99.99,,,-99.99,,2013-03-14 01:12:00,
2013-03-13 20:23:00,27.0,-99.9,30.24,NW,323,2.0,-999.0,-999,-99.99,,,-99.99,,2013-03-14 01:23:00,
2013-03-13 20:33:00,27.0,-99.9,30.24,NNW,330,3.0,-999.0,-999,-99.99,,,-99.99,,2013-03-14 01:33:00,
2013-03-13 20:42:00,27.0,-99.9,30.24,NNW,330,3.0,-999.0,-999,-99.99,,,-99.99,,2013-03-14 01:42:00,
2013-03-13 20:53:00,27.0,-99.9,30.24,WNW,303,2.0,-999.0,-999,-99.99,,,-99.99,,2013-03-14 01:53:00,
2013-03-13 21:02:00,27.0,-99.9,30.24,NW,313,4.0,-999.0,-999,-99.99,,,-99.99,,2013-03-14 02:02:00,
2013-03-13 21:12:00,27.0,-99.9,30.24,NW,313,4.0,-999.0,-999,-99.99,,,-99.99,,2013-03-14 02:12:00,
2013-03-13 21:22:00,27.0,-99.9,30.24,NW,313,4.0,-999.0,-999,-99.99,,,-99.99,,2013-03-14 02:22:00,
2013-03-13 21:33:00,27.0,-99.9,30.24,NW,313,4.0,-999.0,-999,-99.99,,,-99.99,,2013-03-14 02:33:00,
2013-03-13 21:42:00,27.0,-99.9,30.24,NW,313,4.0,-999.0,-999,-99.99,,,-99.99,,2013-03-14 02:42:00,